This is the latest recevied weather packets stored in our database for station/object G6UYG-13. If no packets are shown the sender has not sent any weather packets the latest 10 day(s).
| Time | Temp. | Humidity | Pressure | Rain* | Wind** | Luminosity | Snow |
|---|---|---|---|---|---|---|---|
| 1777979015 | 11.11° C | 75% | 1013.1 hPa | 0 mm | - | 125 W/m² | - |
| 1777978595 | 11.67° C | 75% | 1013.1 hPa | 0 mm | - | 113 W/m² | - |
| 1777978175 | 11.67° C | 74% | 1013.2 hPa | 0 mm | - | 113 W/m² | - |
| 1777977755 | 11.67° C | 73% | 1013.1 hPa | 0 mm | - | 165 W/m² | - |
| 1777977335 | 11.11° C | 76% | 1013.1 hPa | 0 mm | - | 204 W/m² | - |
| 1777976915 | 11.11° C | 76% | 1013.1 hPa | 0 mm | - | 251 W/m² | - |
| 1777976495 | 11.11° C | 76% | 1013.1 hPa | 0 mm | - | 223 W/m² | - |
| 1777976075 | 11.11° C | 75% | 1013.1 hPa | 0 mm | - | 200 W/m² | - |
| 1777975655 | 10.56° C | 76% | 1013.1 hPa | 0 mm | - | 221 W/m² | - |
| 1777975235 | 10.56° C | 76% | 1013.2 hPa | 0 mm | - | 179 W/m² | - |
| 1777974815 | 10.56° C | 77% | 1013.2 hPa | 0 mm | - | 149 W/m² | - |
| 1777974395 | 11.11° C | 77% | 1013.2 hPa | 0 mm | - | 102 W/m² | - |
| 1777973975 | 11.11° C | 75% | 1013.2 hPa | 0 mm | - | 91 W/m² | - |
| 1777973555 | 11.67° C | 75% | 1013.2 hPa | 0 mm | - | 107 W/m² | - |
| 1777973135 | 11.67° C | 75% | 1013.2 hPa | 0 mm | - | 158 W/m² | - |
| 1777972715 | 11.67° C | 74% | 1013.1 hPa | 0 mm | - | 260 W/m² | - |
| 1777972295 | 11.67° C | 73% | 1013.1 hPa | 0 mm | - | 77 W/m² | - |
| 1777971875 | 11.67° C | 72% | 1013 hPa | 0 mm | - | 95 W/m² | - |
| 1777971640 | 12.22° C | 70% | 1013 hPa | 0 mm | - | 104 W/m² | - |
| 1777971455 | 12.22° C | 70% | 1013 hPa | 0 mm | - | 104 W/m² | - |
| 1777971035 | 12.78° C | 69% | 1013.1 hPa | 0 mm | - | 163 W/m² | - |
| 1777970615 | 12.78° C | 68% | 1013.2 hPa | 0 mm | - | 295 W/m² | - |
| 1777970195 | 12.78° C | 67% | 1013.2 hPa | 0 mm | - | 339 W/m² | - |
| 1777969775 | 12.78° C | 67% | 1013.2 hPa | 0 mm | - | 325 W/m² | - |
| 1777969355 | 12.78° C | 68% | 1013.2 hPa | 0 mm | - | 322 W/m² | - |
* Rain latest hour (hover to see other rain measurements)
** Current wind speed in m/s (hover to see current wind gust speed)